Satellite-Ground Cal/Val Site Overpasses Predictions

Prediction of Satellite NPP Overpassing Cal/Val Site: Antarctic Dome C

Ground Cal/Val Site Location: Latitude: -75.10, Longitude: 123.35; Satellite-Ground Site NADIR distance within 100 km.

Table of predicted overpasses for the next 14.0 days since TLE Epoch: 9/3/2021
Interval Starting Time Ending Time Minimum Distance Time Minimum Distance (km)
1 09/05/2021 14:55:36 09/05/2021 14:56:04 09/05/2021 14:55:50 25.42
2 09/06/2021 14:36:53 09/06/2021 14:37:10 09/06/2021 14:37:02 81.71
3 09/07/2021 07:38:28 09/07/2021 07:38:55 09/07/2021 07:38:41 37.58
4 09/08/2021 07:19:41 09/08/2021 07:20:01 09/08/2021 07:19:51 72.26
5 09/10/2021 15:01:58 09/10/2021 15:02:20 09/10/2021 15:02:09 62.65
6 09/11/2021 14:43:08 09/11/2021 14:43:33 09/11/2021 14:43:20 46.72
7 09/12/2021 07:44:49 09/12/2021 07:45:09 09/12/2021 07:44:59 72.83
8 09/13/2021 07:25:57 09/13/2021 07:26:24 09/13/2021 07:26:10 34.98
